User: anonymous   Login
Location: Unspecified
(0.0000°N, 0.0000°E)
Time: 10:08:53
(UTC+00:00)
Language:

COSMOS 2484 - Orbit

View from above orbital plane
View from above orbital plane
View from above satellite
View from above satellite

Ground track
Ground track

The orbit is defined by the following mean orbital elements,

1 39059U          26145.60786333 +.00000000 +00000-0 -33136-3 0 00003
2 39059  82.5022 235.9289 0027499  84.3190 276.1024 12.42938274    05
Epoch (UTC): 25 May 2026 14:35:19
Eccentricity: 0.0027499
inclination: 82.5022°
perigee height: 1473 km
apogee height: 1516 km
right ascension of ascending node: 235.9289°
argument of perigee: 84.3190°
revolutions per day: 12.42938274
mean anomaly at epoch: 276.1024°

The dashed part of the orbit path shows where the satellite is in the earth's shadow,  

DLR